Location: Orinda
(37.8771°N, 122.1797°W)
Time: 14:31:14
(UTC+00:00)

SL-14 R/B - Pass Details

Date: 21 October 2019
Orbit: 518 x 555 km, 82.4° (Epoch: 17 November)

Event Time Altitude Azimuth Distance (km) Brightness Sun altitude
Rises 13:38:09 0° 180° (S) 2,683 6.9 -9.5°
Reaches altitude 10° 13:40:18 10° 178° (S) 1,790 6.1 -9.1°
Maximum altitude 13:44:12 67° 96° (E) 580 3.7 -8.4°
Drops below altitude 10° 13:48:06 10° 13° (NNE) 1,782 6.0 -7.6°
Sets 13:50:14 0° 11° (N) 2,670 6.9 -7.2°
